User: anonymous   Login
Location: Unspecified
(0.0000°N, 0.0000°E)
Time: 08:46:29
(UTC+00:00)
Language:

Explorer 7 - Orbit

View from above orbital plane
View from above orbital plane
View from above satellite
View from above satellite

Ground track
Ground track

The orbit data is extracted from the following two-line orbital elements,

1 00022U 59009A   16269.18514694  .00000772  00000-0  82720-4 0  9998
2 00022  50.2855   3.3555 0143133 102.6441 259.0552 14.93733913 21739
Epoch (UTC): 25 September 2016 04:26:36
Eccentricity: 0.0143133
inclination: 50.2855°
perigee height: 486 km
apogee height: 686 km
right ascension of ascending node: 3.3555°
argument of perigee: 102.6441°
revolutions per day: 14.93733913
mean anomaly at epoch: 259.0552°
orbit number at epoch: 2173

The dashed part of the orbit path shows where the satellite is in the earth's shadow,  

DLR